Regional Weather Roundup
Issued by NWS Kansas City/Pleasant Hill, MO

Home | Current Version | Previous Version | Graphics & Text | Print | Product List | Glossary Off
Versions: 1 2 3 4 5 6 7 8 9 10 11 12 13 14 15 16 17 18 19 20 21 22 23 24 25 26 27 28 29 30 31 32 33 34 35 36 37 38 39 40 41 42 43 44 45 46 47 48 49 50

000
ASUS43 KEAX 211010
RWREAX

WEATHER ROUNDUP FOR EASTERN KANSAS AND NORTHWEST MISSOURI
NATIONAL WEATHER SERVICE KANSAS CITY/PLEASANT HILL MO
400 AM CST SUN DEC 21 2014

KSZ040-057-103>105-MOZ028-029-037-043-211100-
...KANSAS CITY METROPOLITAN AREA...

CITY           SKY/WX    TMP DP  RH WIND       PRES   REMARKS
K.C. INTL      CLOUDY    36  33  89 S13       30.07F WCI  27
K.C. DOWNTOWN  CLOUDY    38  34  85 S8        30.09F WCI  32
LEES SUMMIT    CLOUDY    37  34  89 SW7       30.11R WCI  32
OLATHE - IXD   CLOUDY    34  33  96 S6        30.09F WCI  29
OLATHE - OJC   CLOUDY    36  34  92 S8        30.09S FOG     WCI  30
LAWRENCE       CLOUDY    37  33  85 S7        30.08F WCI  32

$$

MOZ001>008-011>017-020>025-030>033-038>040-044>046-053-054-211100-
...NORTHERN AND CENTRAL MISSOURI...

CITY           SKY/WX    TMP DP  RH WIND       PRES   REMARKS
ST. JOSEPH     CLOUDY    35  32  88 S10       30.06F WCI  27
MOSBY          CLOUDY    34  32  93 SE3       30.10F FOG
WARRENSBURG    CLOUDY    41  34  75 S7        30.12R
WHITEMAN AFB   CLOUDY    41  35  81 SW10      30.12R WCI  34
CLINTON        CLOUDY    43  36  75 S7        30.13S
SEDALIA        CLOUDY    42  35  76 SW10      30.13S
WARSAW         NOT AVBL
MARSHALL       CLOUDY    43  37  81 SW6       30.13F
CHILLICOTHE      N/A     37  34  89 S5        30.12F WCI  33
MOBERLY        CLOUDY    39  34  81 CALM      30.14F
KIRKSVILLE     CLOUDY    39  35  86 S8        30.12F WCI  33

$$

MOZ041-047>049-056>058-063>065-088>090-097-211100-
...EASTERN AND SOUTHERN MISSOURI...

CITY           SKY/WX    TMP DP  RH WIND       PRES   REMARKS
ST. LOUIS INTL CLOUDY    42  33  70 SE6       30.20F
SPIRIT OF STL  CLOUDY    41  34  76 SE3       30.19F
COLUMBIA       CLOUDY    40  35  83 SE7       30.14S
JEFFERSON CITY CLOUDY    42  35  76 E6        30.15F
MEXICO         CLOUDY    41  39  93 S5        30.15F
HANNIBAL       CLOUDY    39  34  81 SE3       30.16F
ROLLA          CLOUDY    39  34  82 S8        30.13F WCI  33
LEBANON        MOCLDY    39  36  87 S8        30.13F WCI  34
OSAGE BEACH    CLOUDY    43  36  75 S8        30.14S
SPRINGFIELD    CLOUDY    41  35  79 S10       30.11F WCI  35
BRANSON        CLOUDY    39  37  93 CALM      30.15F
NEVADA         CLOUDY    41  37  87 S9        30.12S
JOPLIN         CLOUDY    43  38  82 S8        30.12S
WEST PLAINS    CLOUDY    38  34  85 S5        30.19R WCI  34

$$

IAZ060-094-KSZ022-034>040-054-083-096-NEZ052-066-093-211100-
...KANSAS...SOUTHEAST NEBRASKA AND IOWA...

CITY           SKY/WX    TMP DP  RH WIND       PRES   REMARKS
TOPEKA         CLOUDY   N/A N/A N/A S8        30.06F
MANHATTAN      PTCLDY    37  34  89 S7        30.01F WCI  32
EMPORIA        CLOUDY    37  36  96 S9        30.04F WCI  30
CHANUTE        CLOUDY    40  38  93 S10       30.09F WCI  33
WICHITA        CLOUDY    42  36  79 S13       30.02F
OMAHA          CLOUDY    36  34  92 SE15      29.96F FOG     WCI  27
LINCOLN        CLOUDY    38  36  92 S12       29.94F WCI  30
FALLS CITY     CLOUDY    35  33  92 SE7       30.02F WCI  29
LAMONI         CLOUDY    35  34  96 S14       30.04F WCI  26
DES MOINES     CLOUDY    39  35  86 S12       30.03F WCI  32

$$




USA.gov is the U.S. government's official web portal to all federal, state and local government web resources and services.